sat.trackr.live / text

‹ back to catalog

STARLINK-30465

NORAD 57891 · 2023-146A

PAYLOAD ACTIVE UNKNOWN

§ Identity

Operator
Country
US
Launch date
2023-09-20
Launch site
AFETR
Launch vehicle
Mass (kg)
RCS (m²)

Purposes: comms

External: N2YO · Heavens-Above · Gunter

§ Orbital elements

Epoch: 2026-09-19T09:43:35.416128Z

Period
94.27 min
Inclination
43.0039°
Eccentricity
0.0001036
Mean motion
15.27573745 rev/d
Perigee alt
482.4 km
Apogee alt
483.8 km
Semi-major
6,861.2 km
B*
5.3314e-6
RAAN
300.1129°
Arg perigee
270.3106°
Mean anomaly
89.7627°
Rev number
16,668

§ Raw data

STARLINK-304651 57891U 23146A   26262.40527102 -.00000115  00000+0  53314-5 0  99932 57891  43.0039 300.1129 0001036 270.3106  89.7627 15.27573745166688

JSON: /api/v1/satellites/57891 · /tle

For live sub-satellite position, see the globe view (requires WebGL).

§ Visibility from observer

Set your observer location to see the next 7 days of passes ≥ 10°. The values pass through the URL so the page stays shareable.

No JS? Fill the form by hand. The geolocation button needs JavaScript.